Flag for U.S.A. Weather past 2 weeks in Mobile, Alabama, U.S.A.

Now
58 °F

Clear.


Feels Like: 58 °F
Forecast: 56 / 81 °F
Wind: No wind

Location: Mobile Downtown Airport

Current Time: Oct 26, 2014 at 12:42:28 AM

Latest Report: Oct 25, 2014 at 11:53 PM


Visibility: 7 mi

Pressure: 30.07 "Hg

Humidity: 97%

Dew point: 57 °F

Location of MobileLocation

Historic Weather in Mobile — Graph

°F

Mobile temperature yesterday

Maximum temperature yesterday: 80 °F (at 3:53 PM)
Minimum temperature yesterday: 48 °F (at 4:53 AM)
Average temperature yesterday: 63 °F

Past Weeks' High & Low Weather Summary

 TemperatureHumidityPressure
High85 °F (Oct 11, 1:53 PM)100% (Oct 11, 1:53 AM)30.16 "Hg (Oct 11, 1:53 AM)
Low48 °F (Oct 25, 4:53 AM)29% (Oct 16, 2:53 PM)29.77 "Hg (Oct 14, 2:53 AM)
Average68 °F73%30.02 "Hg
* Reported Oct 10 10:53 PM — Oct 25 10:53 PM, Mobile, Weather by CustomWeather, © 2014

Note: Actual official high and low records may vary slightly from our data, if they occured in-between our weather recording intervals... More about our weather records

Advertising

Mobile weather history for previous 24 hours

 ConditionsComfort  
Time TempWeatherWind HumidityBarometerVisibility
10:53 PM
Oct 25
57 °FClear.No wind96%30.09 "Hg8 mi
9:53 PM59 °FClear.No wind93%30.09 "Hg10 mi
8:53 PM58 °FClear.No wind93%30.08 "Hg10 mi
7:53 PM62 °FClear.3 mph83%30.07 "Hg10 mi
6:53 PM67 °FSunny.3 mph71%30.06 "Hg10 mi
5:53 PM75 °FSunny.6 mph54%30.05 "Hg10 mi
4:53 PM79 °FSunny.8 mph42%30.05 "Hg10 mi
3:53 PM80 °FSunny.8 mph39%30.05 "Hg10 mi
2:53 PM79 °FSunny.7 mph42%30.06 "Hg10 mi
1:53 PM77 °FSunny.8 mph44%30.07 "Hg10 mi
12:53 PM75 °FSunny.9 mph48%30.10 "Hg10 mi
11:53 AM73 °FSunny.13 mph50%30.13 "Hg10 mi
10:53 AM70 °FSunny.9 mph53%30.15 "Hg10 mi
9:53 AM66 °FSunny.9 mph54%30.16 "Hg10 mi
8:53 AM60 °FSunny.10 mph67%30.15 "Hg10 mi
7:53 AM53 °FClear.6 mph86%30.13 "Hg10 mi
6:53 AM50 °FClear.5 mph83%30.12 "Hg10 mi
5:53 AM50 °FClear.6 mph83%30.11 "Hg10 mi
4:53 AM48 °FClear.3 mph89%30.09 "Hg10 mi
3:53 AM49 °FClear.No wind90%30.08 "Hg10 mi
2:53 AM51 °FClear.No wind83%30.08 "Hg10 mi
1:53 AM53 °FClear.3 mph77%30.08 "Hg10 mi
12:53 AM56 °FClear.6 mph72%30.08 "Hg10 mi
Weather by CustomWeather, © 2014

See weather overviewHow to use our weather pages